EW2295 Weather Reports


time (UTC)temp
C
wind
direction
speed
KPH
gust
KPH
rain 1hr
cm
rain 24hr
cm
rain mn
cm
humidity
%
barometer
mb
20230208172046 1 0 0.0 0.0 0.00 0.00 0.00 63 1034.4
20230208171551 1 0 0.0 0.0 0.00 0.00 0.00 61 1034.4
20230208171044 1 0 0.0 0.0 0.00 0.00 0.00 60 1034.4
20230208170544 1 0 0.0 0.0 0.00 0.00 0.00 60 1034.6
20230208170103 1 0 0.0 0.0 0.00 0.00 0.00 61 1034.6
20230208165545 1 0 0.0 0.0 0.00 0.00 0.00 60 1034.7
20230208165044 1 0 0.0 0.0 0.00 0.00 0.00 59 1034.7
20230208164600 1 0 0.0 0.0 0.00 0.00 0.00 56 1034.7
20230208164044 2 0 0.0 0.0 0.00 0.00 0.00 52 1034.8
20230208163542 2 0 0.0 0.0 0.00 0.00 0.00 52 1034.9
20230208163139 3 0 0.0 0.0 0.00 0.00 0.00 48 1034.7
20230208162544 3 0 0.0 0.0 0.00 0.00 0.00 48 1034.9
20230208162046 3 0 0.0 0.0 0.00 0.00 0.00 46 1034.8
20230208161602 3 0 0.0 0.0 0.00 0.00 0.00 46 1035.0
20230208161045 3 0 0.0 0.0 0.00 0.00 0.00 46 1035.0
20230208160545 4 0 0.0 0.0 0.00 0.00 0.00 46 1035.1
20230208160101 4 0 0.0 0.0 0.00 0.00 0.00 46 1035.1
20230208155544 4 0 0.0 3.2 0.00 0.00 0.00 46 1035.1
20230208155045 5 0 0.0 6.4 0.00 0.00 0.00 45 1035.4
20230208154557 5 0 0.0 6.4 0.00 0.00 0.00 46 1035.3
20230208154045 5 0 0.0 4.8 0.00 0.00 0.00 47 1035.3
20230208153544 5 0 0.0 4.8 0.00 0.00 0.00 47 1035.3
20230208153055 5 0 0.0 3.2 0.00 0.00 0.00 46 1035.3
20230208152544 5 0 0.0 3.2 0.00 0.00 0.00 47 1035.3
20230208152045 5 0 0.0 4.8 0.00 0.00 0.00 47 1035.3
20230208151549 5 0 0.0 4.8 0.00 0.00 0.00 47 1035.4
20230208151045 6 0 0.0 4.8 0.00 0.00 0.00 45 1035.4
20230208150543 6 336 0.0 0.0 0.00 0.00 0.00 45 1035.4
20230208150054 6 0 0.0 0.0 0.00 0.00 0.00 45 1035.4
20230208145541 6 0 0.0 3.2 0.00 0.00 0.00 46 1035.5
20230208145045 6 0 0.0 6.4 0.00 0.00 0.00 45 1035.5
20230208144553 6 0 0.0 6.4 0.00 0.00 0.00 44 1035.5
20230208144044 6 336 0.0 6.4 0.00 0.00 0.00 42 1035.6
20230208143541 6 0 0.0 6.4 0.00 0.00 0.00 42 1035.7
20230208143052 6 0 0.0 6.4 0.00 0.00 0.00 46 1035.7
20230208142544 5 0 0.0 6.4 0.00 0.00 0.00 45 1035.8
20230208142044 5 0 0.0 3.2 0.00 0.00 0.00 45 1035.8
20230208141557 5 0 0.0 3.2 0.00 0.00 0.00 44 1035.9
20230208141044 5 0 0.0 6.4 0.00 0.00 0.00 44 1036.0
20230208140544 6 0 0.0 6.4 0.00 0.00 0.00 45 1036.2
20230208140100 6 335 1.6 8.0 0.00 0.00 0.00 44 1036.2
20230208135546 6 0 0.0 8.0 0.00 0.00 0.00 44 1036.3
20230208135046 5 334 0.0 6.4 0.00 0.00 0.00 44 1036.3
20230208134610 6 0 0.0 6.4 0.00 0.00 0.00 44 1036.5
20230208134046 5 0 0.0 6.4 0.00 0.00 0.00 44 1036.4
20230208133545 5 0 0.0 6.4 0.00 0.00 0.00 45 1036.6
20230208133107 5 332 0.0 6.4 0.00 0.00 0.00 44 1036.7
20230208132545 5 332 0.0 6.4 0.00 0.00 0.00 46 1036.7
20230208132045 5 0 0.0 6.4 0.00 0.00 0.00 47 1036.8
20230208131558 5 0 0.0 6.4 0.00 0.00 0.00 46 1036.8
20230208131046 5 340 0.0 4.8 0.00 0.00 0.00 47 1036.9
20230208130544 5 0 0.0 6.4 0.00 0.00 0.00 48 1036.9
20230208130101 5 341 0.0 6.4 0.00 0.00 0.00 48 1037.0
20230208125543 5 0 0.0 6.4 0.00 0.00 0.00 47 1037.0
20230208125044 5 0 1.6 6.4 0.00 0.00 0.00 49 1037.1
20230208124557 5 0 0.0 6.4 0.00 0.00 0.00 49 1037.1
20230208124044 5 0 0.0 3.2 0.00 0.00 0.00 50 1037.1
20230208123546 5 0 0.0 6.4 0.00 0.00 0.00 48 1037.2
20230208123058 5 0 0.0 6.4 0.00 0.00 0.00 44 1037.3
20230208122544 6 0 0.0 4.8 0.00 0.00 0.00 44 1037.3
20230208122044 6 0 0.0 0.0 0.00 0.00 0.00 39 1037.3
20230208121604 6 0 0.0 0.0 0.00 0.00 0.00 40 1037.5
20230208121047 5 0 0.0 0.0 0.00 0.00 0.00 39 1037.4
20230208120543 5 0 0.0 0.0 0.00 0.00 0.00 38 1037.5
20230208120059 5 0 0.0 0.0 0.00 0.00 0.00 39 1037.6
20230208115547 5 0 0.0 0.0 0.00 0.00 0.00 38 1037.8
20230208115044 5 0 0.0 0.0 0.00 0.00 0.00 39 1037.7
20230208114558 5 0 0.0 0.0 0.00 0.00 0.00 40 1037.6
20230208114044 5 0 0.0 0.0 0.00 0.00 0.00 38 1037.6
20230208113544 5 0 0.0 0.0 0.00 0.00 0.00 39 1037.7
20230208113058 5 0 0.0 0.0 0.00 0.00 0.00 40 1037.8
20230208112544 5 0 0.0 0.0 0.00 0.00 0.00 40 1038.1
20230208112043 5 0 0.0 0.0 0.00 0.00 0.00 46 1038.1
20230208111555 4 0 0.0 0.0 0.00 0.00 0.00 44 1038.2
20230208111044 4 0 0.0 0.0 0.00 0.00 0.00 45 1038.3
20230208110543 4 0 0.0 0.0 0.00 0.00 0.00 46 1038.3
20230208110057 4 0 0.0 0.0 0.00 0.00 0.00 49 1038.5
20230208105546 3 0 0.0 0.0 0.00 0.00 0.00 53 1038.4
20230208105045 3 0 0.0 0.0 0.00 0.00 0.00 54 1038.5
20230208104558 3 0 0.0 0.0 0.00 0.00 0.00 53 1038.5
20230208104046 3 0 0.0 0.0 0.00 0.00 0.00 55 1038.5
20230208103548 3 0 0.0 0.0 0.00 0.00 0.00 54 1038.5
20230208103055 3 0 0.0 0.0 0.00 0.00 0.00 56 1038.5
20230208102548 3 0 0.0 0.0 0.00 0.00 0.00 56 1038.6
20230208102044 2 0 0.0 0.0 0.00 0.00 0.00 56 1038.6
20230208101552 2 0 0.0 0.0 0.00 0.00 0.00 57 1038.6
20230208101043 2 0 0.0 6.4 0.00 0.00 0.00 59 1038.6
20230208100544 2 0 0.0 6.4 0.00 0.00 0.00 58 1038.5
20230208100058 2 0 1.6 6.4 0.00 0.00 0.00 58 1038.5
20230208095544 2 0 0.0 6.4 0.00 0.00 0.00 60 1038.4
20230208095046 1 0 0.0 0.0 0.00 0.00 0.00 61 1038.5
20230208094559 1 0 0.0 0.0 0.00 0.00 0.00 63 1038.5
20230208094046 1 0 0.0 0.0 0.00 0.00 0.00 67 1038.6
20230208093546 1 0 0.0 0.0 0.00 0.00 0.00 67 1038.6
20230208093056 0 0 0.0 0.0 0.00 0.00 0.00 72 1038.9
20230208092549 0 0 0.0 0.0 0.00 0.00 0.00 78 1038.7
20230208092046 0 0 0.0 0.0 0.00 0.00 0.00 82 1038.7
20230208091601 -1 0 0.0 0.0 0.00 0.00 0.00 85 1038.7
20230208091045 -1 0 0.0 0.0 0.00 0.00 0.00 87 1038.7
20230208090546 -2 0 0.0 0.0 0.00 0.00 0.00 90 1038.7
20230208090056 -2 0 0.0 0.0 0.00 0.00 0.00 91 1038.6
20230208085546 -2 0 0.0 0.0 0.00 0.00 0.00 91 1038.9
20230208085043 -3 0 0.0 0.0 0.00 0.00 0.00 92 1038.8
20230208084556 -3 0 0.0 0.0 0.00 0.00 0.00 92 1038.9
20230208084046 -3 0 0.0 0.0 0.00 0.00 0.00 92 1038.9
20230208083546 -3 0 0.0 0.0 0.00 0.00 0.00 92 1038.9
20230208083051 -3 0 0.0 0.0 0.00 0.00 0.00 92 1039.0
20230208082550 -3 0 0.0 0.0 0.00 0.00 0.00 92 1039.0
20230208082046 -3 0 0.0 0.0 0.00 0.00 0.00 92 1038.9
20230208081555 -3 0 0.0 0.0 0.00 0.00 0.00 92 1038.9
20230208081045 -3 0 0.0 0.0 0.00 0.00 0.00 93 1038.9
20230208080545 -4 0 0.0 0.0 0.00 0.00 0.00 93 1038.9
20230208080102 -4 0 0.0 0.0 0.00 0.00 0.00 93 1038.9
20230208075543 -4 0 0.0 0.0 0.00 0.00 0.00 93 1039.0
20230208075043 -4 0 0.0 0.0 0.00 0.00 0.00 93 1038.9
20230208074555 -4 0 0.0 0.0 0.00 0.00 0.00 93 1038.9
20230208074047 -4 0 0.0 0.0 0.00 0.00 0.00 93 1038.9
20230208073545 -5 0 0.0 0.0 0.00 0.00 0.00 93 1039.0
20230208073105 -5 0 0.0 0.0 0.00 0.00 0.00 93 1039.0
20230208072544 -5 0 0.0 0.0 0.00 0.00 0.00 93 1039.0
20230208072044 -5 0 0.0 0.0 0.00 0.00 0.00 93 1038.9
20230208071605 -5 0 0.0 0.0 0.00 0.00 0.00 93 1039.0
20230208071047 -5 0 0.0 0.0 0.00 0.00 0.00 93 1039.1
20230208070544 -5 0 0.0 0.0 0.00 0.00 0.00 93 1039.0
20230208070058 -5 0 0.0 0.0 0.00 0.00 0.00 93 1039.0
20230208065545 -5 0 0.0 0.0 0.00 0.00 0.00 93 1039.0
20230208065046 -5 0 0.0 0.0 0.00 0.00 0.00 93 1039.0
20230208064638 -5 0 0.0 0.0 0.00 0.00 0.00 93 1039.2
20230208064043 -5 0 0.0 0.0 0.00 0.00 0.00 93 1039.1
20230208063546 -5 0 0.0 0.0 0.00 0.00 0.00 93 1039.2
20230208063111 -5 0 0.0 0.0 0.00 0.00 0.00 93 1039.3
20230208062544 -5 0 0.0 0.0 0.00 0.00 0.00 92 1039.3
20230208062048 -5 0 0.0 0.0 0.00 0.00 0.00 92 1039.2
20230208061556 -5 0 0.0 0.0 0.00 0.00 0.00 92 1039.3
20230208061043 -5 0 0.0 0.0 0.00 0.00 0.00 92 1039.2
20230208060545 -5 0 0.0 0.0 0.00 0.00 0.00 93 1039.2
20230208060117 -5 0 0.0 0.0 0.00 0.00 0.00 92 1039.3
20230208055544 -5 0 0.0 0.0 0.00 0.00 0.00 92 1039.3
20230208055046 -5 0 0.0 0.0 0.00 0.00 0.00 92 1039.1
20230208054559 -5 0 0.0 0.0 0.00 0.00 0.00 92 1039.1
20230208054045 -5 0 0.0 0.0 0.00 0.00 0.00 92 1039.0
20230208053546 -5 0 0.0 0.0 0.00 0.00 0.00 92 1039.1
20230208053107 -4 0 0.0 0.0 0.00 0.00 0.00 92 1039.2
20230208052546 -4 0 0.0 0.0 0.00 0.00 0.00 92 1039.1
20230208052045 -4 0 0.0 0.0 0.00 0.00 0.00 92 1039.2
20230208051628 -4 0 0.0 0.0 0.00 0.00 0.00 92 1039.1
20230208051044 -4 0 0.0 0.0 0.00 0.00 0.00 92 1039.1
20230208050544 -4 0 0.0 0.0 0.00 0.00 0.00 92 1038.9
20230208050102 -4 0 0.0 0.0 0.00 0.00 0.00 92 1039.0
20230208045543 -4 0 0.0 0.0 0.00 0.00 0.00 92 1039.0
20230208045048 -4 0 0.0 0.0 0.00 0.00 0.00 92 1038.8
20230208044559 -3 0 0.0 0.0 0.00 0.00 0.00 92 1038.9
20230208044044 -3 0 0.0 0.0 0.00 0.00 0.00 92 1038.9
20230208043550 -4 0 0.0 0.0 0.00 0.00 0.00 92 1038.9
20230208043103 -4 0 0.0 0.0 0.00 0.00 0.00 92 1038.7
20230208042545 -4 0 0.0 0.0 0.00 0.00 0.00 93 1038.7
20230208042044 -4 0 0.0 0.0 0.00 0.00 0.00 92 1038.6
20230208041607 -4 0 0.0 0.0 0.00 0.00 0.00 93 1038.7
20230208041047 -4 0 0.0 0.0 0.00 0.00 0.00 93 1038.8
20230208040544 -4 0 0.0 0.0 0.00 0.00 0.00 93 1038.8
20230208040054 -4 0 0.0 0.0 0.00 0.00 0.00 93 1038.7
20230208035544 -4 0 0.0 0.0 0.00 0.00 0.00 93 1038.8
20230208035043 -4 0 0.0 0.0 0.00 0.00 0.00 93 1038.7
20230208034605 -4 0 0.0 0.0 0.00 0.00 0.00 93 1038.8
20230208034043 -3 0 0.0 0.0 0.00 0.00 0.00 93 1038.8
20230208033542 -3 0 0.0 0.0 0.00 0.00 0.00 93 1038.8
20230208033056 -3 0 0.0 0.0 0.00 0.00 0.00 93 1038.8
20230208032543 -3 0 0.0 0.0 0.00 0.00 0.00 93 1038.7
20230208032044 -3 0 0.0 0.0 0.00 0.00 0.00 94 1038.8
20230208031606 -3 0 0.0 0.0 0.00 0.00 0.00 94 1038.8
20230208031043 -4 0 0.0 0.0 0.00 0.00 0.00 94 1038.9
20230208030543 -4 0 0.0 0.0 0.00 0.00 0.00 94 1038.9
20230208030101 -4 0 0.0 0.0 0.00 0.00 0.00 94 1038.8
20230208025543 -4 0 0.0 0.0 0.00 0.00 0.00 94 1038.9
20230208025045 -4 0 0.0 0.0 0.00 0.00 0.00 94 1039.0
20230208024555 -4 0 0.0 0.0 0.00 0.00 0.00 94 1038.9
20230208024047 -4 0 0.0 0.0 0.00 0.00 0.00 94 1038.9
20230208023550 -4 0 0.0 0.0 0.00 0.00 0.00 94 1039.0
20230208023048 -4 0 0.0 0.0 0.00 0.00 0.00 94 1039.0
20230208022544 -4 0 0.0 0.0 0.00 0.00 0.00 94 1039.2
20230208022048 -4 0 0.0 0.0 0.00 0.00 0.00 94 1039.1
20230208021559 -4 0 0.0 0.0 0.00 0.00 0.00 94 1039.0
20230208021046 -4 0 0.0 0.0 0.00 0.00 0.00 94 1039.1
20230208020542 -4 0 0.0 0.0 0.00 0.00 0.00 94 1039.1
20230208020056 -4 0 0.0 0.0 0.00 0.00 0.00 94 1039.1
20230208015543 -3 0 0.0 0.0 0.00 0.00 0.00 94 1039.1
20230208015043 -3 0 0.0 0.0 0.00 0.00 0.00 94 1039.2
20230208014553 -3 0 0.0 0.0 0.00 0.00 0.00 94 1039.2
20230208014045 -3 0 0.0 0.0 0.00 0.00 0.00 94 1039.3
20230208013544 -3 0 0.0 0.0 0.00 0.00 0.00 94 1039.3
20230208013125 -3 0 0.0 0.0 0.00 0.00 0.00 94 1039.3
20230208012543 -3 0 0.0 0.0 0.00 0.00 0.00 94 1039.3
20230208012043 -3 0 0.0 0.0 0.00 0.00 0.00 94 1039.2
20230208011554 -3 0 0.0 0.0 0.00 0.00 0.00 94 1039.3
20230208011046 -3 0 0.0 0.0 0.00 0.00 0.00 93 1039.3
20230208010548 -3 0 0.0 0.0 0.00 0.00 0.00 93 1039.5
20230208010112 -3 0 0.0 0.0 0.00 0.00 0.00 93 1039.4
20230208005545 -3 0 0.0 0.0 0.00 0.00 0.00 94 1039.5
20230208005045 -3 0 0.0 0.0 0.00 0.00 0.00 94 1039.6
20230208004555 -3 0 0.0 0.0 0.00 0.00 0.00 94 1039.5
20230208004045 -3 0 0.0 0.0 0.00 0.00 0.00 94 1039.6
20230208003548 -3 0 0.0 0.0 0.00 0.00 0.00 93 1039.6
20230208003051 -3 0 0.0 0.0 0.00 0.00 0.00 93 1039.7
20230208002545 -3 0 0.0 0.0 0.00 0.00 0.00 93 1039.6
20230208002047 -3 0 0.0 0.0 0.00 0.00 0.00 93 1039.6
20230208001605 -3 0 0.0 0.0 0.00 0.00 0.00 93 1039.6
20230208001044 -3 0 0.0 0.0 0.00 0.00 0.00 93 1039.4
20230208000547 -3 0 0.0 0.0 0.00 0.00 0.00 93 1039.5
20230208000100 -3 0 0.0 0.0 0.00 0.00 0.00 94 1039.6
20230207235547 -3 0 0.0 0.0 0.00 0.00 0.00 93 1039.6
20230207235045 -3 0 0.0 0.0 0.00 0.00 0.00 93 1039.7
20230207234558 -2 0 0.0 0.0 0.00 0.00 0.00 94 1039.6
20230207234046 -3 0 0.0 0.0 0.00 0.00 0.00 93 1039.7
20230207233545 -3 0 0.0 0.0 0.00 0.00 0.00 93 1039.7
20230207233058 -3 0 0.0 0.0 0.00 0.00 0.00 93 1039.7
20230207232544 -3 0 0.0 0.0 0.00 0.00 0.00 93 1039.7
20230207232045 -3 0 0.0 0.0 0.00 0.00 0.00 93 1039.6
20230207231600 -3 0 0.0 0.0 0.00 0.00 0.00 93 1039.6
20230207231044 -3 0 0.0 0.0 0.00 0.00 0.00 93 1039.6
20230207230544 -3 0 0.0 0.0 0.00 0.00 0.00 93 1039.5
20230207230108 -2 0 0.0 0.0 0.00 0.00 0.00 93 1039.6
20230207225545 -3 0 0.0 0.0 0.00 0.00 0.00 93 1039.5
20230207225043 -3 0 0.0 0.0 0.00 0.00 0.00 93 1039.6
20230207224600 -2 0 0.0 0.0 0.00 0.00 0.00 93 1039.6
20230207224048 -2 0 0.0 0.0 0.00 0.00 0.00 93 1039.5
20230207223545 -2 0 0.0 0.0 0.00 0.00 0.00 93 1039.6
20230207223055 -2 0 0.0 0.0 0.00 0.00 0.00 92 1039.5
20230207222545 -2 0 0.0 0.0 0.00 0.00 0.00 92 1039.6
20230207222046 -2 0 0.0 0.0 0.00 0.00 0.00 92 1039.7
20230207221558 -2 0 0.0 0.0 0.00 0.00 0.00 92 1039.6
20230207221049 -2 0 0.0 0.0 0.00 0.00 0.00 92 1039.6
20230207220546 -2 0 0.0 0.0 0.00 0.00 0.00 93 1039.7
20230207220122 -2 0 0.0 0.0 0.00 0.00 0.00 93 1039.7
20230207215545 -2 0 0.0 0.0 0.00 0.00 0.00 93 1039.7
20230207215045 -2 0 0.0 0.0 0.00 0.00 0.00 93 1039.7
20230207214553 -2 0 0.0 0.0 0.00 0.00 0.00 93 1039.6
20230207214047 -2 0 0.0 0.0 0.00 0.00 0.00 93 1039.6
20230207213547 -2 0 0.0 0.0 0.00 0.00 0.00 93 1039.7
20230207213105 -2 0 0.0 0.0 0.00 0.00 0.00 93 1039.7
20230207212543 -2 0 0.0 0.0 0.00 0.00 0.00 93 1039.9
20230207212045 -2 0 0.0 0.0 0.00 0.00 0.00 92 1039.8
20230207211558 -2 0 0.0 0.0 0.00 0.00 0.00 92 1039.8
20230207211042 -2 0 0.0 0.0 0.00 0.00 0.00 92 1039.8
20230207210542 -2 0 0.0 0.0 0.00 0.00 0.00 92 1039.9
20230207210108 -2 0 0.0 0.0 0.00 0.00 0.00 92 1040.0
20230207205543 -2 0 0.0 0.0 0.00 0.00 0.00 92 1039.8
20230207205042 -2 0 0.0 0.0 0.00 0.00 0.00 92 1039.8
20230207204559 -2 0 0.0 0.0 0.00 0.00 0.00 92 1039.7
20230207204043 -2 0 0.0 0.0 0.00 0.00 0.00 92 1039.6
20230207203542 -2 0 0.0 0.0 0.00 0.00 0.00 91 1039.7
20230207203056 -2 0 0.0 0.0 0.00 0.00 0.00 91 1039.7
20230207202542 -2 0 0.0 0.0 0.00 0.00 0.00 92 1039.6
20230207202042 -2 0 0.0 0.0 0.00 0.00 0.00 92 1039.6
20230207201553 -2 0 0.0 0.0 0.00 0.00 0.00 92 1039.7
20230207201042 -2 0 0.0 0.0 0.00 0.00 0.00 91 1039.7
20230207200543 -2 0 0.0 0.0 0.00 0.00 0.00 91 1039.7
20230207200055 -2 0 0.0 0.0 0.00 0.00 0.00 91 1039.6
20230207195542 -2 0 0.0 0.0 0.00 0.00 0.00 91 1039.6
20230207195042 -2 0 0.0 0.0 0.00 0.00 0.00 91 1039.6
20230207194601 -2 0 0.0 0.0 0.00 0.00 0.00 91 1039.5
20230207194042 -2 0 0.0 0.0 0.00 0.00 0.00 91 1039.4
20230207193544 -2 0 0.0 0.0 0.00 0.00 0.00 91 1039.5
20230207193106 -2 0 0.0 0.0 0.00 0.00 0.00 90 1039.6
20230207192545 -2 0 0.0 0.0 0.00 0.00 0.00 90 1039.5
20230207192045 -2 0 0.0 0.0 0.00 0.00 0.00 90 1039.6
20230207191556 -2 0 0.0 0.0 0.00 0.00 0.00 90 1039.6
20230207191045 -1 0 0.0 0.0 0.00 0.00 0.00 90 1039.6
20230207190545 -1 0 0.0 0.0 0.00 0.00 0.00 90 1039.6
20230207190101 -1 0 0.0 0.0 0.00 0.00 0.00 90 1039.8
20230207185544 -1 0 0.0 0.0 0.00 0.00 0.00 89 1039.7
20230207185044 -1 0 0.0 0.0 0.00 0.00 0.00 89 1039.7
20230207184556 -1 0 0.0 0.0 0.00 0.00 0.00 89 1039.7
20230207184043 -1 0 0.0 0.0 0.00 0.00 0.00 89 1039.6
20230207183541 -1 0 0.0 0.0 0.00 0.00 0.00 89 1039.7
20230207183055 -1 0 0.0 0.0 0.00 0.00 0.00 88 1039.6
20230207182544 -1 0 0.0 0.0 0.00 0.00 0.00 88 1039.6
20230207182044 -1 0 0.0 0.0 0.00 0.00 0.00 88 1039.6
20230207181559 -1 0 0.0 0.0 0.00 0.00 0.00 88 1039.6
20230207181044 -1 0 0.0 0.0 0.00 0.00 0.00 88 1039.6
20230207180545 -1 0 0.0 0.0 0.00 0.00 0.00 87 1039.7
20230207180135 -1 0 0.0 0.0 0.00 0.00 0.00 87 1039.8
20230207175543 -1 0 0.0 0.0 0.00 0.00 0.00 87 1039.7
20230207175043 -1 0 0.0 0.0 0.00 0.00 0.00 86 1039.7
20230207174602 -1 0 0.0 0.0 0.00 0.00 0.00 86 1039.8
20230207174044 0 0 0.0 0.0 0.00 0.00 0.00 86 1039.8
20230207173544 0 0 0.0 0.0 0.00 0.00 0.00 85 1039.9
20230207173059 0 0 0.0 0.0 0.00 0.00 0.00 85 1039.9
20230207172544 0 0 0.0 0.0 0.00 0.00 0.00 84 1039.8